Location: Decatur Area Astronomy Club
(40.0275°N, 88.7810°W)
Time: 23:25:29
(UTC-05:00)

Daily predictions for brighter satellites

Satellite Brightness Start Highest point End
(mag) Time Altitude Azimuth Time Altitude Azimuth Time Altitude Azimuth
Cosmos 44 3.3 18:24:32 10° SSW 18:28:45 49° ESE 18:32:56 10° NE
AQUARIUS 4.2 18:24:40 10° SSE 18:29:09 90° E 18:33:41 10° NNW
MTI 4.0 18:27:08 10° NNE 18:30:16 48° E 18:33:22 10° S
SL-8 R/B 4.5 18:28:35 10° W 18:33:14 46° NNW 18:37:54 10° NE
Aureole 2 Rocket 4.1 18:31:04 10° NNE 18:34:01 20° ENE 18:37:01 10° ESE
Cosmos 2227 Rocket 3.8 18:32:40 10° ESE 18:35:07 13° E 18:37:32 10° ENE
RESURS DK-1 2.6 18:31:03 10° NNW 18:35:11 78° WSW 18:39:18 10° SSE
Atlas Centaur 2 3.8 18:36:11 10° SW 18:38:59 18° S 18:42:10 10° SSE
SMAP 3.5 18:35:26 10° S 18:40:03 69° WSW 18:44:42 10° NNW
Gbstr 26 Del rocket 3.9 18:36:02 10° NW 18:40:42 47° NNE 18:46:29 10° ESE
Abrixas rocket 4.2 18:38:20 10° NW 18:40:45 19° N 18:43:10 10° NE
Cosmos 1452 Rocket 3.5 18:36:16 10° NNW 18:41:33 85° ENE 18:46:48 10° SSE
Iridium 4 Rocket 4.3 18:37:12 10° SSE 18:42:20 38° E 18:47:43 10° NNE
SPOT 3 Rocket 3.9 18:37:47 10° SE 18:42:43 44° ENE 18:47:39 10° N
Cosmos 1300 4.1 18:45:05 10° SE 18:47:45 18° E 18:50:26 10° NE
Cosmos 2360 Rocket 2.6 18:42:36 10° NNW 18:48:14 69° WSW 18:53:50 10° SSE
Sich 1 4.2 18:46:53 10° NNE 18:50:19 22° ENE 18:53:44 10° SE
Cosmos 1400 Rocket 4.0 18:48:41 10° NNW 18:52:33 47° W 18:56:19 10° SSW
CZ-4C R/B 2.1 18:49:57 10° SSW 18:55:00 66° ESE 19:00:45 10° NE
COSMO-SKYMED 1 2.5 18:51:38 10° NNE 18:55:58 68° ESE 19:00:16 10° S
Cosmos 2098 Rocket 3.7 18:53:01 10° SSE 18:57:30 48° E 19:03:09 10° NNE
Cosmos 2151 3.7 18:53:57 10° NNW 18:58:10 59° W 19:02:19 10° S
Cosmos 2058 3.7 18:55:23 10° NNW 18:59:29 57° W 19:03:31 10° S
Abrixas 2.3 18:58:54 10° WSW 19:00:59 47° NNW 19:02:09 21° NE
FENGYUN 3A 3.9 18:56:09 10° SE 19:01:18 47° ENE 19:06:28 10° N
COSMOS 2428 2.7 18:56:43 10° NNW 19:02:24 70° ENE 19:08:04 10° SSE
Cosmos 2333 Rocket 2.7 18:59:49 10° N 19:05:11 39° ENE 19:10:32 10° SE
Cosmos 2219 3.2 18:59:39 10° SSW 19:05:21 72° ESE 19:11:05 10° NNE
Cosmos 44 Rocket 3.4 19:00:56 10° SW 19:05:38 74° WNW 19:10:20 10° NNE
Cosmos 1805 Rocket 3.7 19:02:18 10° N 19:06:35 49° E 19:10:52 10° SSE
MOS 1 4.3 19:01:58 10° SSE 19:07:38 89° WSW 19:13:22 10° NNW
Hubble Space Telescope 3.1 19:06:39 10° S 19:07:59 11° SSE 19:09:19 10° SSE
Meteor 2-10 4.4 19:04:57 10° SSE 19:09:33 38° E 19:14:16 10° NNE
Cosmos 158 Rocket 4.2 19:05:01 10° SSW 19:10:03 72° WNW 19:15:17 10° NNE
PSLV R/B 3.8 19:07:50 10° SW 19:10:47 38° SSE 19:12:00 26° ESE
ERS-2 3.9 19:08:25 10° SSW 19:11:49 35° W 19:15:15 10° NNW
Cosmos 2297 Rocket 3.2 19:07:43 10° SSE 19:12:02 23° E 19:14:04 19° ENE
Cosmos 1048 Rocket 4.1 19:10:41 10° SSW 19:15:48 78° WNW 19:20:56 10° NNE
Cosmos 1666 Rocket 3.9 19:11:54 10° N 19:15:59 38° ENE 19:20:01 10° SSE
APEX 4.0 19:13:07 10° SW 19:16:03 37° WNW 19:18:41 10° N
YAOGAN 1 3.7 19:12:17 10° S 19:16:26 46° W 19:20:37 10° NNW
Cosmos 1726 1.9 19:15:26 10° S 19:19:06 74° E 19:22:47 10° NNE
Cosmos 1328 Rocket 4.5 19:15:49 10° SE 19:19:26 25° E 19:19:43 25° E
CZ-4 R/B 3.8 19:16:49 10° SSW 19:20:25 28° W 19:24:00 10° NW
Cosmos 1633 Rocket 3.6 19:16:32 10° N 19:20:39 36° ENE 19:24:44 10° SE
Cosmos 2251 Rocket 4.3 19:18:48 10° SSE 19:23:19 29° E 19:25:27 22° ENE
NOAA 12 4.1 19:25:39 10° SSE 19:30:57 85° WSW 19:36:19 10° NNW
SAR-Lupe-3 4.4 19:27:29 10° NNE 19:31:03 66° ESE 19:34:35 10° S
Cosmos 2219 Rocket 2.1 19:29:17 10° NNW 19:34:54 79° ENE 19:40:31 10° SSE
Cosmos 1934 Rocket 3.9 19:28:43 10° S 19:35:03 74° E 19:41:25 10° N
FengYun 1-2 T 4.2 19:29:49 10° SSE 19:35:09 55° ENE 19:40:30 10° N
Cosmos 1821 Rocket 4.0 19:30:46 10° S 19:36:55 82° W 19:43:14 10° N
Meteor 2-2 Rocket 4.3 19:31:39 10° S 19:37:08 52° E 19:42:36 10° NNE
Cosmos 2221 3.9 19:33:43 10° SSW 19:37:47 40° WNW 19:41:56 10° N
ALOS 2.5 19:35:09 10° S 19:39:48 71° WSW 19:44:29 10° NNW
Cosmos 2084 3.1 19:36:21 10° NNW 19:40:08 66° NE 19:40:52 52° ESE
Delta 2 Rocket 4.4 19:37:14 10° WSW 19:40:37 29° SSW 19:41:39 25° SSE
Thor Agena Rocket 3.3 19:38:30 10° NNE 19:43:36 76° ESE 19:48:37 10° S
USA 267 3.9 19:48:33 31° ESE 19:49:12 32° SE 19:54:53 10° S
Cosmos 1331 Rocket 3.9 19:45:19 10° NNW 19:50:31 66° ENE 19:52:43 34° SE
Meteor 1-27 4.5 19:50:07 10° SSE 19:58:18 26° NE 20:00:59 10° NNE
SJ-6B 3.8 20:01:35 35° N 20:01:35 35° N 20:03:50 10° N
BREEZE-M DEB (TANK) 3.5 19:46:50 10° WNW 20:02:56 68° NNE 20:04:20 50° E
MOS 1-B Rocket 3.9 20:06:25 53° ESE 20:07:19 59° ENE 20:13:24 10° N
H-2A R/B 3.2 20:07:18 46° SSW 20:08:13 62° W 20:12:08 10° NNW
Cosmos 2123 Rocket 4.1 20:02:28 10° N 20:08:42 75° W 20:14:58 10° S
In-Cosmos 22 Rocket 4.3 20:04:03 10° NNW 20:09:50 79° W 20:15:39 10° S
Cosmos 1605 Rocket 3.9 20:05:19 10° S 20:11:26 85° W 20:17:33 10° N
Cosmos 2237 Rocket 2.1 20:06:33 10° NNW 20:12:17 85° ENE 20:13:39 54° SSE
Cosmos 967 Rocket 4.4 20:10:03 10° NNW 20:16:31 68° ENE 20:17:17 62° E
Cosmos 1153 Rocket 4.3 20:10:48 10° S 20:16:52 71° E 20:23:04 10° NNE
Cosmos 2227 Rocket 2.2 20:12:42 10° SSW 20:18:21 80° WNW 20:21:12 31° NNE
Cosmos 1302 Rocket 4.2 20:14:41 10° NNW 20:18:55 55° NNE 20:18:55 55° NNE
USA 234 4.5 20:23:45 25° NNE 20:24:31 25° NNE 20:29:40 10° NW
SL-16 R/B 3.2 20:19:39 10° NNW 20:23:14 34° NNE 20:23:14 34° NNE
NOSS 0 Rocket 4.4 20:19:10 10° NNW 20:25:11 57° WSW 20:28:59 23° S
Resurs 01 Rocket 3.9 20:35:06 16° N 20:35:06 16° N 20:36:01 10° N
Meteor 2-17 Rocket 4.4 20:29:12 10° S 20:35:57 72° N 20:41:23 10° N
Cosmos 1980 4.2 20:31:08 10° NNW 20:36:39 56° WSW 20:37:55 46° SSW
Meteor 2-3 Rocket 4.0 20:37:49 10° NNW 20:42:50 65° NW 20:42:50 65° NW
CZ-4C R/B 4.2 20:39:49 10° W 20:44:07 23° NW 20:48:07 13° N
Cosmos 2333 Rocket 3.9 20:44:21 10° NW 20:49:16 30° WSW 20:53:15 14° SSW
Cosmos 2297 Rocket 3.0 20:50:15 10° SW 20:55:41 48° WNW 20:56:00 47° NW
